Regional Weather Roundup
Issued by NWS Charleston, SC

Current Version | Previous Version | Graphics & Text | Print | Product List | Glossary On
Versions: 1 2 3 4 5 6 7 8 9 10 11 12 13 14 15 16 17 18 19 20 21 22 23 24 25 26 27 28 29 30 31 32 33 34 35 36 37 38 39 40 41 42 43 44 45 46 47 48 49 50
000
ASUS42 KCHS 100012
RWRCHS

REGIONAL WEATHER ROUNDUP
NATIONAL WEATHER SERVICE CHARLESTON SC
700 PM EST TUE FEB 09 2016

NOTE: "FAIR" INDICATES FEW OR NO CLOUDS BELOW 12,000 FEET WITH NO
SIGNIFICANT WEATHER AND/OR OBSTRUCTIONS TO VISIBILITY.

NOT ALL STATIONS ARE QUALITY CONTROLLED BY THE NATIONAL
WEATHER SERVICE. USE DATA WITH CAUTION...ESPECIALLY
DEWPOINT OBSERVATIONS.

SCZ027-030-031-034>040-042>050-100100-
...SOUTHEAST SOUTH CAROLINA...

CITY           SKY/WX    TMP DP  RH WIND       PRES   REMARKS
N CHARLESTON   MOCLDY    42  21  43 W9        29.90R
6HR MIN TEMP:  41; 6HR MAX TEMP:  46;

WATERFRONT PRK   N/A     42  24  49 W7        29.73R
MOUNT PLEASANT CLOUDY    43  23  45 W14G23    29.89R
JOHNS ISLAND   CLOUDY    41  23  48 W12G21    29.90R
PINOPOLIS        N/A     43  25  49 W18       29.80R
MONCKS CORNER  CLOUDY    37  18  44 W5        29.89R WCI  34
SUMMERVILLE    MOCLDY    39  27  60 W7G17     29.90R WCI  34
BEAUFORT MCAS  MOCLDY    41  22  46 W6        29.91R
6HR MIN TEMP:  41; 6HR MAX TEMP:  46;

BEAUFORT ARPT  FAIR      41  23  48 W8        29.90R
HILTON HEAD IS CLOUDY    43  27  52 W7        29.91R
WALTERBORO     MOCLDY    41  25  52 W8        29.91R
ALLENDALE      CLOUDY    39  23  52 CALM      29.90R

...SOUTHERN MIDLANDS AND PEE DEE...

CITY           SKY/WX    TMP DP  RH WIND       PRES   REMARKS
GEORGETOWN     NOT AVBL
KINGSTREE      NOT AVBL
ORANGEBURG     CLOUDY    39  20  46 W13       29.89R WCI  31
6HR MIN TEMP:  39; 6HR MAX TEMP:  43;

BARNWELL       CLOUDY    39  23  52 W10       29.91R WCI  32
AIKEN          CLOUDY    34  27  75 W9        29.92R WCI  26
MANNING        CLOUDY    37  21  52 W10G17    29.87R WCI  30
COLUMBIA       CLOUDY    37  23  56 W17G24    29.88R WCI  27
6HR MIN TEMP:  37; 6HR MAX TEMP:  44; 6HR PCP: TRACE;

SUMTER         CLOUDY    38  24  57 W16G28    29.84R WCI  28
6HR MIN TEMP:  38; 6HR MAX TEMP:  42;

FLORENCE       CLOUDY    39  25  57 W15G24    29.83R WCI  31
6HR MIN TEMP:  39; 6HR MAX TEMP:  43;

MYRTLE BEACH   NOT AVBL
N MYRTLE BEACH CLOUDY    42  25  50 W14G22    29.84R
6HR MIN TEMP:  42; 6HR MAX TEMP:  48;


$$

GAZ063-065-086>088-099>101-113>116-118-119-134>141-150-100100-
...SOUTHEAST GEORGIA...

CITY           SKY/WX    TMP DP  RH WIND       PRES   REMARKS
SAVANNAH ARPT  MOCLDY    43  24  47 NW6       29.92R
6HR MIN TEMP:  43; 6HR MAX TEMP:  50;

HUNTER AAF     CLOUDY    44  24  46 NW8       29.89R
6HR MIN TEMP:  44; 6HR MAX TEMP:  50;

FORT STEWART   CLOUDY    44  24  44 NW6       29.90R
6HR MIN TEMP:  44; 6HR MAX TEMP:  50;

STATESBORO     CLOUDY    46  19  34 NW8       29.92R
SYLVANIA       CLOUDY    42  28  57 NW7       29.92R
CLAXTON        CLOUDY    44  28  54 W13G20    29.92R

...CSRA...CENTRAL AND FAR SOUTHEAST GEORGIA...

CITY           SKY/WX    TMP DP  RH WIND       PRES   REMARKS
THOMSON        CLOUDY    37  26  63 W13G18    29.97R WCI  29
AUGUSTA-BUSH   CLOUDY    38  20  48 W20G26    29.92R WCI  28
6HR MIN TEMP:  38; 6HR MAX TEMP:  41;

AUGUSTA-DANIEL CLOUDY    38  19  46 W9G20     29.91R WCI  31
SWAINSBORO     CLOUDY    39  27  60 NW16G25   29.96R WCI  30
VIDALIA        CLOUDY    43  21  42 NW13G21   29.94R
EASTMAN        MOCLDY    40  24  52 NW9G17    30.00R WCI  34
HAZLEHURST     MOCLDY    44  21  39 NW8       29.94R
ALMA           CLOUDY    46  20  35 W12G18    29.93R
6HR MIN TEMP:  45; 6HR MAX TEMP:  50;

WAYCROSS       CLEAR     48  26  43 NW9       29.94R
JESUP          MOCLDY    46  28  49 W5        29.93R
BAXLEY         MOCLDY    45  23  42 NW14G20   29.94R
BRUNSWICK      CLEAR     45  27  49 W3        29.92R
SAINT SIMONS   CLEAR     47  24  40 NW7       29.90R
6HR MIN TEMP:  47; 6HR MAX TEMP:  52;


$$

SCZ027-028-034-036>038-045-046-048>050-GAZ119-141-100100-
...LAKE AND SUPPLEMENTAL COASTAL OBSERVATIONS...

STATION/POSITION TIME  TEMP    WIND        PRES    WAVE   SWELL
                       AIR SEA DIR/SP/G            HT/PER HT/PER/DIR
                 (UTC) (F)     (DEG/KT/KT) (MB)    (FT/S) (FT/S/D)
WINYAH BAY       NOT AVBL
LAKE MURRAY      2300   37     250/ 12/ 22 1010.2R
ACE BASIN NERRS  2245   42     280/  4     1011.0
FORT PULASKI     2300   44 51  300/  9/ 11 1012.1R
SAPELO ISLAND    2300   49     270/ 11     1012.0R

$$

ANZ835-935-AMZ111-154-330-350-352-354-370-450-454-472-100100-
...C-MAN AND BUOY OBSERVATIONS...

STATION/POSITION TIME  TEMP    WIND        PRES    WAVE   SWELL
                       AIR SEA DIR/SP/G            HT/PER HT/PER/DIR
                 (UTC) (F)     (DEG/KT/KT) (MB)    (FT/S) (FT/S/D)
BUOY 41004       2350   48 65  270/ 25/ 31 1010.5R   9/ 8   2/14
BUOY 41008       2350   50 55  290/ 17/ 21 1012.2R   4/ 5
FOLLY BEACH CMAN 0000   41     280/ 10/ 15 1012.3R
CAPERS NEARSHORE 2308   45     280/ 21/ 27 1010.4R
FRIPP NEARSHORE  2300   45     310/ 17/ 21 1011.4R


STATION/POSITION TIME  TEMP    WIND        PRES    WAVE   SWELL
                       AIR SEA DIR/SP/G            HT/PER HT/PER/DIR
                 (UTC) (F)     (DEG/KT/KT) (MB)    (FT/S) (FT/S/D)
5E ST. MARYS GA  2321      56                N/A     3/15   2/ 80/15
FRYING PAN BUOY  2300   47 53  260/ 25/ 31 1008.5R
BUOY 41025       2350   49 74  280/ 25/ 33 1005.2R  10/14   8/ 80/14
CAPE LOOKOUT NC  NOT AVBL
BUOY 41002       2350   58 69  270/ 31/ 41   N/A    17/10   8/340/15
BUOY 41010       2320   62 72              1013.2F
ST AUGUSTINE FL  0000   53 57  250/ 14/ 17 1013.7R


$$



USA.gov is the U.S. government's official web portal to all federal, state and local government web resources and services.